Location: Krasnoyarskiy Pitomnik
(51.1333°N, 71.6167°E)
Time: 17:58:30
(UTC+00:00)

Vanguard 2 Rocket - All Passes

Search period start: 19 April 2024 00:00
Search period end: 29 April 2024 00:00
Orbit: 555 x 3307 km, 32.9° (Epoch: 19 April)

Date Brightness Start Highest point End Pass type
(mag) Time Alt. Az. Time Alt. Az. Time Alt. Az.
19 Apr - 00:24:27 10° WSW 00:27:07 11° SW 00:29:37 10° SW daylight
19 Apr - 14:19:51 10° SSE 14:28:20 16° SE 14:37:42 10° ESE daylight
19 Apr - 16:26:41 10° SSW 16:41:44 34° SSE 16:57:55 10° E visible
19 Apr - 18:39:24 10° WSW 18:57:01 43° S 19:13:12 10° ESE visible
19 Apr - 20:55:18 10° WSW 21:12:10 36° SSW 21:25:37 10° SE visible
19 Apr - 23:14:56 10° W 23:25:15 18° SW 23:33:40 10° S visible
20 Apr - 15:25:28 10° SSW 15:38:33 28° SE 15:53:31 10° E visible
20 Apr - 17:36:32 10° SW 17:53:15 41° S 18:10:12 10° ESE visible
20 Apr - 19:51:10 10° WSW 20:08:46 41° SSW 20:23:53 10° SE visible
20 Apr - 22:08:53 10° W 22:22:54 26° SW 22:34:07 10° SSE visible
21 Apr - 14:25:20 10° S 14:35:48 21° SE 14:48:04 10° E daylight
21 Apr - 16:34:17 10° SW 16:49:36 38° SSE 17:06:37 10° ESE visible
21 Apr - 18:47:36 10° WSW 19:05:03 43° S 19:21:32 10° ESE visible
21 Apr - 21:03:53 10° W 21:20:01 32° SSW 21:33:24 10° SSE visible
21 Apr - 23:25:39 10° WSW 23:32:43 13° SW 23:38:58 10° SSW visible
22 Apr - 13:27:14 10° SSE 13:33:31 13° SE 13:40:36 10° ESE daylight
22 Apr - 15:32:44 10° SSW 15:46:15 32° SSE 16:02:23 10° E visible
22 Apr - 17:44:37 10° WSW 18:01:14 43° S 18:18:36 10° ESE visible
22 Apr - 19:59:37 10° WSW 20:16:42 38° SSW 20:31:52 10° SE visible
22 Apr - 22:18:12 10° W 22:30:27 21° SW 22:40:50 10° S visible
23 Apr - 14:32:00 10° SSW 14:43:21 26° SE 14:57:24 10° E visible
23 Apr - 16:42:14 10° SW 16:57:30 41° SSE 17:15:03 10° ESE visible
23 Apr - 18:55:58 10° WSW 19:13:02 41° S 19:29:38 10° SE visible
23 Apr - 21:12:42 10° W 21:27:42 28° SW 21:40:41 10° SSE visible
24 Apr - 13:32:25 10° S 13:40:56 18° SE 13:51:19 10° E daylight
24 Apr - 15:40:27 10° SW 15:54:03 36° SSE 16:10:56 10° ESE visible
24 Apr - 17:52:55 10° WSW 18:09:14 43° S 18:26:46 10° ESE visible
24 Apr - 20:08:14 10° W 20:24:30 34° SSW 20:39:28 10° SSE visible
24 Apr - 22:28:26 10° WSW 22:37:53 16° SW 22:46:21 10° SSW visible
25 Apr - 12:36:27 10° SE 12:38:59 11° SE 12:41:42 10° ESE daylight
25 Apr - 14:39:19 10° SSW 14:51:01 30° SSE 15:06:11 10° E visible
25 Apr - 16:50:24 10° SW 17:05:28 42° S 17:23:18 10° ESE visible
25 Apr - 19:04:29 10° WSW 19:20:56 39° SSW 19:37:26 10° SE visible
25 Apr - 21:21:58 10° W 21:35:15 23° SW 21:47:16 10° S visible
26 Apr - 13:39:02 10° S 13:48:28 23° SE 14:00:43 10° E daylight
26 Apr - 15:48:28 10° SW 16:01:55 39° SSE 16:19:15 10° ESE visible
26 Apr - 18:01:21 10° WSW 18:17:11 41° S 18:34:41 10° SE visible
26 Apr - 20:17:05 10° W 20:32:11 29° SSW 20:46:34 10° SSE visible
26 Apr - 22:42:02 10° WSW 22:45:10 11° SW 22:48:12 10° SW visible
27 Apr - 12:40:12 10° SSE 12:46:24 15° SE 12:53:58 10° ESE daylight
27 Apr - 14:47:06 10° SSW 14:58:48 34° SSE 15:14:38 10° ESE visible
27 Apr - 16:58:46 10° WSW 17:13:26 42° S 17:31:18 10° ESE visible
27 Apr - 19:13:10 10° WSW 19:28:45 34° SSW 19:44:50 10° SSE visible
27 Apr - 21:32:02 10° WSW 21:42:40 17° SW 21:52:44 10° SSW visible
28 Apr - 13:46:23 10° SSW 13:56:07 27° SSE 14:09:30 10° E daylight
28 Apr - 15:56:42 10° SW 16:09:53 40° S 16:27:19 10° ESE visible
28 Apr - 18:09:56 10° WSW 18:25:06 38° SSW 18:42:18 10° SE visible
28 Apr - 20:26:21 10° W 20:39:45 24° SW 20:52:57 10° S visible
